Wind_Speed
11 11 11 10 10 10 10 9 9 9 9 9 9 9 9 9 9 9 8 8 8 8 9 10 9 10 11 10 10 10 10 10 10 10 10 10 10 10 10 10 9 9 9
12 11 11 11 11 11 10 10 9 10 10 10 10 10 9 9 10 10 10 9 9 9 9 10 10 10 11 11 11 11 11 10 10 11 11 11 10 10 10 10 10 10 10
13 12 12 12 12 11 10 11 10 10 11 11 10 10 10 10 11 11 11 11 11 11 11 11 11 11 11 12 12 12 11 11 11 11 11 11 11 11 11 10 11 11 11
14 13 12 11 11 11 11 11 11 12 12 11 11 11 11 11 12 12 12 12 12 12 12 12 11 11 12 12 12 12 12 11 11 11 11 12 12 12 12 11 11 11 11
14 13 12 11 11 11 11 12 11 11 11 11 11 12 12 12 13 13 13 13 13 13 12 12 12 12 12 12 12 12 12 12 11 11 12 12 12 13 13 12 12 12 12
13 12 12 12 12 12 12 13 12 12 12 12 12 13 14 14 14 15 15 14 14 14 13 13 13 13 13 13 12 12 12 12 12 12 12 13 13 13 13 13 13 13 13
13 12 13 12 13 14 13 13 13 12 13 13 13 14 15 15 15 15 15 15 15 15 15 14 14 14 14 13 13 12 13 13 13 13 13 13 14 14 14 14 14 14 14
14 13 13 13 13 13 13 13 14 13 13 14 14 15 15 15 15 16 16 16 16 16 16 16 15 15 15 14 14 13 13 13 14 14 14 14 15 15 15 15 15 15 15
15 15 15 15 14 14 14 15 15 14 14 14 14 15 16 16 16 17 18 17 17 17 16 16 16 15 16 16 15 15 15 15 15 15 15 15 15 15 15 15 16 16 15
15 16 16 16 16 16 16 16 16 15 15 15 15 16 17 17 19 20 20 20 19 18 17 17 16 16 16 16 16 16 16 16 16 15 15 15 15 16 15 15 16 17 16
16 17 17 18 18 18 17 17 17 16 16 16 17 17 18 18 19 20 20 20 20 19 19 19 18 18 18 18 18 18 17 17 17 17 17 16 16 16 16 16 17 17 17
17 18 18 19 19 20 19 19 19 18 18 19 19 19 20 20 19 19 19 19 20 20 20 21 21 21 20 20 20 19 19 18 18 18 18 18 18 17 18 18 18 17 17
18 19 20 20 21 20 20 21 21 20 20 20 20 20 19 20 20 20 20 21 21 21 21 21 22 22 21 21 21 20 19 19 19 19 19 19 19 18 19 19 19 18 18
20 20 20 21 21 21 22 22 22 22 22 21 20 21 20 21 21 21 21 22 22 22 21 22 21 21 21 21 20 20 20 20 20 20 20 20 19 20 19 20 19 19 19
22 22 22 22 23 23 23 23 23 23 22 22 21 21 21 22 23 23 22 22 22 22 21 21 21 21 21 21 21 20 20 21 21 21 21 21 21 20 20 21 21 20 19
24 24 24 24 24 24 23 24 24 24 23 23 23 23 22 22 23 23 23 23 22 22 22 21 21 22 22 22 22 22 22 21 22 22 21 21 21 21 21 21 21 21 20
26 26 26 26 25 25 25 26 26 25 23 23 24 23 23 23 23 24 23 23 24 23 23 23 23 23 24 24 23 23 23 23 23 23 22 22 23 23 23 23 22 22 22
28 27 27 27 26 26 25 26 26 25 25 24 24 24 25 25 25 25 24 25 25 24 24 24 25 25 25 25 25 25 25 24 24 23 23 24 24 25 25 25 24 23 23
30 30 30 29 29 28 27 27 27 26 26 26 26 26 26 27 27 26 26 26 26 26 26 26 26 26 26 26 26 26 25 25 24 24 24 25 25 25 25 25 25 24 24
30 30 30 30 30 30 29 29 29 28 28 28 28 27 28 28 27 27 27 27 28 27 27 27 27 27 27 27 27 27 26 26 25 26 25 25 26 26 25 25 26 26 26
30 30 30 31 31 30 29 30 30 30 29 29 29 28 28 28 28 28 28 28 28 28 27 27 27 27 28 28 28 27 27 27 27 27 27 27 26 26 26 26 26 26 27
29 29 30 31 31 30 30 30 30 31 31 30 30 29 29 29 29 29 28 28 28 27 27 27 28 28 28 28 28 28 28 28 28 28 28 28 28 28 27 27 27 27 27
30 30 30 31 31 31 31 31 31 31 30 30 30 30 30 30 29 29 28 28 29 29 29 29 29 28 28 28 28 28 28 28 28 28 28 28 28 29 28 28 29 29 28
30 30 30 30 29 29 30 31 30 30 30 30 30 30 30 30 30 30 29 30 30 30 30 30 30 30 30 29 29 29 28 29 29 29 29 29 29 29 29 29 30 31 31
30 30 30 30 29 28 28 29 28 28 28 29 29 29 29 30 30 30 31 31 30 30 30 30 31 31 31 31 30 29 29 28 28 29 29 29 30 29 29 30 31 31 32
28 29 29 30 29 28 29 29 28 28 29 29 29 29 29 29 30 30 30 30 30 30 31 31 30 30 31 31 30 29 29 29 29 29 29 29 30 30 30 30 30 31 31
Wind_Direction
276 276 278 276 272 272 277 277 272 269 267 263 260 264 269 267 262 264 268 276 282 285 288 287 284 285 283 281 282 281 276 273 270 270 269 269 266 266 271 271 267 265 268
265 271 273 269 268 270 270 269 266 267 266 259 256 263 266 269 265 265 268 275 281 283 285 284 285 287 284 283 283 280 276 273 270 271 270 271 269 268 268 268 267 266 267
262 267 270 267 264 265 265 265 264 267 267 261 258 261 266 270 267 266 269 278 280 281 283 282 282 283 283 283 281 280 279 273 270 270 270 268 270 269 268 267 267 266 265
265 265 268 266 262 265 266 264 269 272 267 262 263 264 267 267 264 264 268 277 279 281 284 285 281 281 283 282 279 277 277 276 273 271 268 264 263 264 266 266 267 267 267
265 261 264 268 261 264 270 272 276 275 272 273 276 266 266 266 264 264 267 273 277 279 281 282 282 282 284 281 277 278 276 275 274 271 268 264 262 263 264 267 267 266 267
265 260 257 260 259 262 268 270 274 276 275 273 275 271 265 264 268 270 268 268 273 277 280 282 282 283 282 279 276 276 275 273 271 272 269 266 262 263 264 266 268 268 269
264 261 257 258 261 262 265 269 273 274 273 272 271 274 271 268 268 269 267 268 272 274 276 278 281 283 283 281 277 275 273 273 272 273 271 267 264 264 264 263 265 268 268
257 257 257 259 263 263 264 271 274 274 272 270 270 271 273 271 268 268 266 269 271 273 275 277 278 279 279 281 280 277 275 274 273 272 271 270 267 266 265 264 263 264 265
256 256 258 260 262 265 268 271 275 276 276 273 271 271 274 272 269 268 267 267 271 273 274 275 275 275 276 278 277 278 277 275 275 274 271 268 268 268 268 266 263 262 264
259 259 261 261 260 261 265 268 273 274 274 271 273 273 274 274 270 270 269 269 269 271 271 272 274 273 272 273 275 276 276 275 274 275 273 269 268 267 266 266 264 263 262
264 263 263 261 260 261 263 267 271 274 274 275 275 274 274 274 274 269 267 268 268 270 271 270 271 272 270 270 272 274 274 274 272 273 272 271 268 266 264 264 266 267 264
264 263 262 261 261 261 262 265 269 272 274 275 274 272 274 275 272 269 267 269 271 272 272 271 272 272 271 270 270 271 272 272 271 271 271 270 268 267 264 263 264 266 266
262 262 263 262 260 261 263 265 267 270 273 274 273 271 273 274 273 270 269 269 271 272 272 274 273 273 272 272 271 270 270 269 268 269 269 268 267 267 264 263 263 263 264
261 262 265 264 264 262 261 264 267 271 273 274 272 270 271 270 268 270 270 270 271 271 272 273 274 275 273 274 274 272 270 269 267 266 267 267 266 265 266 263 261 260 261
263 265 267 268 268 267 267 267 269 271 273 273 272 269 270 269 268 269 268 269 271 271 271 271 271 272 273 273 274 272 270 270 267 264 265 266 264 264 264 262 259 259 260
261 265 267 265 268 270 271 272 273 276 273 270 270 270 268 268 269 270 270 270 271 272 270 270 271 271 271 272 271 271 271 270 268 265 263 264 264 263 262 260 260 259 260
263 264 264 266 270 271 275 275 274 276 276 273 270 271 269 269 269 270 271 271 271 271 269 271 271 271 271 270 271 273 270 269 268 266 263 262 262 262 261 258 257 258 258
261 263 266 270 273 274 276 275 276 277 275 273 272 272 271 270 270 271 271 271 272 272 271 271 271 271 271 271 271 271 272 270 268 266 265 263 263 262 261 259 258 257 257
261 263 265 269 272 274 274 273 272 274 273 272 272 271 272 270 268 269 270 270 269 269 269 271 270 270 269 269 270 271 271 270 268 268 266 264 264 263 262 260 257 256 257
261 262 264 267 270 272 272 272 272 272 272 270 269 270 271 270 268 269 268 268 268 268 269 269 270 270 269 269 270 270 269 269 268 268 266 265 264 263 261 260 257 256 257
262 263 265 266 267 269 272 273 272 272 273 271 268 268 269 269 271 270 269 267 267 267 267 267 268 269 268 269 269 269 269 268 267 267 266 265 263 263 261 260 259 258 259
263 264 265 268 269 270 271 272 272 274 274 271 268 268 269 269 271 271 270 267 267 267 266 267 267 268 268 268 268 268 269 267 266 267 265 264 263 262 261 260 260 259 258
265 265 266 268 268 268 271 272 273 275 275 272 271 269 269 270 270 269 268 267 266 266 266 267 268 268 267 266 266 267 267 266 266 266 265 264 264 262 261 259 258 258 258
266 266 265 264 264 267 270 272 274 274 275 275 275 273 272 271 269 268 266 266 266 267 266 266 266 266 266 265 265 265 265 266 265 266 265 265 264 263 260 259 258 258 258
264 264 264 264 266 267 270 273 273 274 275 275 275 276 275 272 271 271 270 269 267 267 266 266 265 264 264 265 265 266 266 267 266 266 266 266 265 264 262 261 261 261 259
264 265 265 266 268 270 272 273 274 276 275 274 277 277 276 275 273 272 271 271 271 270 269 267 267 266 264 263 265 266 267 268 268 267 267 265 264 264 262 261 262 261 260
Height
5863 5862 5862 5862 5862 5862 5863 5863 5863 5862 5862 5862 5862 5862 5863 5862 5862 5862 5862 5862 5862 5862 5861 5861 5861 5861 5861 5860 5860 5860 5860 5860 5860 5860 5860 5860 5860 5861 5861 5861 5861 5862 5862
5859 5859 5859 5859 5860 5860 5860 5860 5860 5860 5860 5859 5860 5860 5861 5861 5861 5861 5861 5860 5860 5860 5859 5859 5859 5858 5858 5858 5858 5858 5857 5857 5857 5857 5857 5857 5858 5858 5858 5858 5859 5859 5859
5856 5856 5856 5856 5857 5857 5858 5857 5858 5857 5857 5857 5857 5858 5858 5858 5859 5859 5858 5858 5858 5857 5857 5856 5856 5856 5856 5855 5855 5855 5855 5855 5854 5854 5855 5855 5855 5855 5855 5855 5855 5856 5856
5853 5853 5853 5854 5854 5855 5854 5855 5855 5855 5854 5854 5855 5855 5855 5855 5856 5856 5856 5855 5855 5855 5854 5854 5853 5853 5853 5852 5852 5852 5852 5852 5851 5851 5851 5851 5852 5852 5852 5853 5853 5853 5853
5849 5850 5850 5851 5851 5852 5852 5852 5851 5852 5852 5852 5851 5852 5852 5853 5853 5853 5853 5852 5852 5852 5852 5851 5851 5850 5850 5849 5849 5849 5849 5848 5848 5848 5848 5848 5849 5849 5849 5850 5850 5850 5850
5846 5846 5847 5848 5848 5848 5848 5848 5849 5849 5849 5849 5849 5849 5849 5849 5850 5849 5849 5849 5849 5849 5848 5848 5848 5847 5847 5846 5846 5846 5845 5845 5845 5845 5845 5845 5845 5846 5846 5846 5846 5846 5847
5842 5843 5844 5844 5845 5845 5846 5846 5846 5846 5846 5846 5846 5846 5846 5846 5846 5846 5846 5846 5845 5844 5844 5844 5844 5844 5843 5843 5843 5842 5842 5842 5842 5842 5842 5842 5842 5842 5842 5843 5843 5843 5843
5839 5839 5841 5841 5842 5842 5842 5842 5843 5842 5842 5842 5842 5842 5842 5842 5842 5843 5842 5842 5841 5841 5840 5840 5840 5840 5840 5839 5839 5839 5839 5839 5838 5838 5838 5838 5838 5838 5838 5839 5839 5839 5840
5834 5835 5836 5837 5838 5839 5838 5839 5838 5838 5838 5838 5837 5838 5838 5838 5838 5838 5838 5838 5837 5837 5836 5836 5836 5836 5836 5836 5835 5835 5835 5835 5835 5834 5834 5834 5834 5834 5834 5835 5835 5836 5836
5830 5831 5832 5832 5833 5834 5834 5834 5834 5834 5834 5833 5833 5833 5833 5833 5833 5833 5833 5833 5832 5832 5832 5831 5832 5831 5831 5831 5831 5831 5831 5831 5830 5830 5830 5830 5830 5830 5830 5831 5831 5832 5832
5826 5827 5827 5827 5828 5828 5829 5829 5829 5829 5829 5829 5829 5828 5828 5828 5827 5827 5827 5827 5827 5826 5826 5826 5826 5827 5827 5827 5826 5826 5826 5826 5826 5826 5826 5826 5826 5826 5826 5826 5827 5827 5828
5821 5821 5822 5822 5822 5822 5823 5823 5824 5824 5824 5824 5823 5823 5823 5822 5822 5822 5822 5822 5821 5821 5821 5821 5821 5821 5821 5821 5821 5820 5820 5820 5820 5821 5821 5821 5821 5821 5822 5822 5823 5823 5823
5815 5816 5816 5817 5816 5816 5817 5817 5817 5817 5817 5817 5817 5816 5816 5817 5817 5816 5816 5816 5816 5816 5816 5815 5815 5815 5815 5814 5814 5814 5814 5814 5815 5815 5815 5816 5816 5817 5817 5817 5818 5818 5819
5810 5810 5810 5810 5810 5810 5811 5812 5812 5811 5811 5810 5810 5810 5810 5810 5810 5810 5810 5810 5810 5810 5810 5809 5809 5808 5808 5808 5808 5808 5808 5808 5809 5809 5810 5810 5811 5811 5812 5812 5813 5813 5814
5803 5802 5802 5803 5804 5805 5805 5805 5805 5805 5804 5804 5804 5804 5804 5804 5804 5803 5804 5804 5804 5804 5803 5803 5803 5803 5803 5803 5802 5802 5803 5803 5803 5803 5804 5804 5805 5805 5806 5807 5807 5808 5809
5796 5796 5796 5797 5798 5798 5798 5798 5798 5797 5797 5797 5797 5797 5797 5797 5797 5797 5797 5797 5797 5797 5797 5797 5797 5797 5797 5797 5797 5796 5796 5797 5797 5797 5797 5798 5799 5799 5800 5801 5801 5802 5803
5789 5790 5790 5790 5790 5790 5790 5790 5790 5789 5789 5789 5789 5790 5790 5790 5790 5790 5790 5789 5789 5789 5789 5790 5790 5790 5790 5790 5790 5790 5790 5790 5790 5790 5791 5791 5792 5793 5794 5794 5795 5796 5798
5782 5782 5782 5782 5783 5782 5782 5783 5782 5782 5781 5781 5782 5782 5782 5783 5782 5782 5782 5782 5782 5781 5782 5782 5783 5783 5783 5783 5783 5783 5783 5783 5783 5783 5784 5784 5785 5785 5786 5787 5788 5790 5791
5774 5774 5774 5775 5775 5775 5775 5775 5774 5774 5774 5774 5774 5774 5774 5774 5774 5774 5774 5774 5774 5774 5774 5775 5775 5775 5775 5775 5775 5775 5775 5775 5775 5776 5776 5777 5778 5778 5779 5780 5781 5783 5784
5765 5766 5766 5766 5766 5767 5767 5767 5767 5766 5766 5765 5765 5765 5765 5765 5765 5765 5765 5765 5766 5766 5766 5766 5766 5767 5767 5767 5767 5767 5767 5767 5768 5768 5769 5769 5770 5771 5771 5772 5774 5775 5777
5756 5757 5757 5757 5758 5758 5758 5758 5758 5757 5756 5756 5756 5756 5756 5756 5756 5755 5755 5756 5756 5757 5757 5758 5758 5758 5759 5758 5758 5758 5758 5759 5759 5760 5760 5761 5762 5763 5764 5765 5766 5768 5769
5747 5748 5748 5748 5748 5748 5749 5749 5748 5748 5747 5747 5747 5747 5748 5747 5746 5746 5746 5747 5747 5748 5748 5749 5749 5750 5750 5750 5749 5749 5750 5750 5751 5751 5752 5753 5754 5755 5756 5757 5758 5759 5761
5738 5738 5739 5739 5739 5739 5739 5739 5740 5739 5738 5738 5738 5738 5738 5738 5737 5737 5737 5738 5738 5739 5739 5740 5740 5741 5741 5741 5741 5741 5741 5741 5742 5743 5743 5744 5745 5746 5747 5748 5749 5751 5752
5729 5729 5730 5730 5730 5730 5730 5730 5730 5730 5730 5730 5729 5729 5728 5728 5728 5728 5728 5729 5729 5730 5730 5730 5731 5731 5731 5732 5732 5732 5732 5732 5733 5734 5734 5735 5736 5737 5738 5739 5740 5741 5743
5720 5720 5721 5721 5721 5721 5721 5721 5721 5721 5721 5720 5720 5719 5719 5718 5718 5718 5719 5719 5720 5720 5720 5721 5721 5721 5722 5722 5723 5723 5723 5723 5724 5725 5725 5726 5727 5728 5729 5730 5731 5732 5733
5711 5711 5711 5712 5712 5713 5713 5712 5712 5712 5711 5711 5710 5710 5709 5709 5709 5709 5709 5709 5709 5710 5710 5711 5711 5711 5712 5712 5713 5713 5714 5714 5715 5715 5716 5717 5718 5718 5719 5720 5721 5722 5723